星链-3107 (STARLINK-3107 )

导读

STARLINK-3107是美国SpaceX公司星链(Starlink)星座的卫星,于2021年9月14日发射升空,属于星链低轨互联网星座的组网卫星之一,承担全球卫星互联网服务组网任务。这类低轨卫星通过批量部署,可为全球提供高速宽带网络接入服务,尤其覆盖地面通信难以企及的偏远区域。

基本信息
目录编号:
49171
目录名称:
STARLINK-3107
国际标识:
2021-082AT
轨道中心:
EARTH
卫星名称:
星链-3107
卫星全名:
星链-3107 (STARLINK-3107 )
卫星状态:
在轨 (已飞行1823 天)
发射日期:
2021-09-14 UTC
国别 :
美国 (US)
星等 :
--
该卫星已列入 空间交会检测服务 Space Conjunction Data Service (SCDS) ,当前飞行风险评估等级: 无高风险
轨道信息
数据来源 国际轨道数据
星历时间: 2026-09-11T13:07:49+0800
14小时前
查看轨道信息
半长轴: 6893.058km
偏心率: 0.0006833
轨道倾角: 69.996°
近地点辐角 279.943°
升交点赤经 168.365°
平近点角 80.097°
近地点: 510.21km
远地点: 519.632km
周期: 94.924分钟
每日圈数: 15.169976
详细信息
固有亮度:
5
最大亮度:
2.5
卫星平台:
Starlink v1.5
覆盖范围:
全球
运营商:
太空探索技术公司
运营商所在国:
美国
制造商(研发单位):
太空探索技术公司
制造商所在国:
美国
使用方式:
暂无
卫星简介
星链(Starlink)计划是由太空探索技术公司(SpaceX)提出的一个巨型低轨卫星互联网星座项目,计划在2019年至2024年间在太空搭建由约1.2万颗卫星组成的“星链”网络,其中1584颗将部署在地球上空550千米处的近地轨道,并从2020年开始工作。该卫星仍在工作。
2D轨道图
3D轨道图
轨道高度分析图
轨道倾角分析图
轨道综合分析图
查看轨道综合分析图
交会数据列表
事件ID 空间交会对象 最接近时刻(TCA) 交会距离 交会风险概率(CRP) 交会风险指数(CRI) 操作
CDM_260911-200604-917106-054124
UMBRA-09 (60541)
2026-09-11T
20:06:03+0000
1.527 km
极远距离
6.412808E-6 低风险 0.51
CDM_260910-155804-917105-452324
2026-09-10T
15:58:18+0000
2.049 km
极远距离
2.696258E-6 低风险 0.44
CDM_260910-191203-660504-917124
TANDEM X (36605)
2026-09-10T
19:12:35+0000
2.879 km
极远距离
1.192366E-6 低风险 0.37
与全量物体交会距离演化趋势
与全量物体交会风险概率演化趋势